カタログに戻る

STARLINK-37163

運用中通信VLEO
NORAD 68264·PAYLOAD·🇺🇸 United States

打ち上げ Mar 19, 2026 から Vandenberg Space Force Base

Loading…

次のパス (今後24時間)

TLE

最新Source: CelesTrak SupGP

元期: Sep 14, 2026, 23:25 UTC

1 68264C 26055C   26257.97618056 -.00068717  00000+0 -20302-2 0  2574
2 68264  53.1578 155.6096 0001185  90.0196 289.6923 15.34426110    16

AllMySatでSTARLINK-37163をリアルタイム追跡

Download on the App Store